Location: Audignicourt
(49.4788°N, 3.1340°E)
Time: 08:06:43
(UTC+00:00)

Cosmos 468 Rocket - Pass Details

Date: 15 May 2026
Orbit: 740 x 773 km, 74.0° (Epoch: 6 June)

Event Time Altitude Azimuth Distance (km) Brightness Sun altitude
Exits shadow 22:30:14 32° 198° (SSW) 1,303 4.8 -19.6°
Maximum altitude 22:32:44 85° 113° (ESE) 780 3.9 -19.7°
Drops below altitude 10° 22:38:01 10° 25° (NNE) 2,315 7.2 -19.9°
Sets 22:40:23 0° 25° (NNE) 3,241 8.0 -20.0°
